Hourly Data Report for October 11, 2015

All times are specified in Local Standard Time (LST). Add 1 hour to adjust for Daylight Saving Time where and when it is observed.

KUGLUKTUK A
NUNAVUT

67°49'00.000" N
115°08'38.000" W
22.60 m
2300903
71938
YCO

Download Data

Hourly Data (October 2015)
Hourly Data Report for October 11, 2015
Temp Definition
°C
Dew Point Temp Definition
°C
Rel Hum Definition
%
Wind Dir Definition
10's deg

Wind Spd Definition
km/h
Visibility Definition
km
Stn Press Definition
kPa
Hmdx Definition


Wind Chill Definition


Weather Definition


TIME
00:00 Legend Double Dagger -5.6 -7.4 87 36 23 19.3 100.09   -13 Snow
01:00 Legend Double Dagger -6.0 -7.4 90 34 16 19.3 100.15   -12 Snow
02:00 Legend Double Dagger -5.4 -7.4 86 36 22 19.3 100.22   -12 Snow
03:00 Legend Double Dagger -5.9 -8.2 84 2 20 19.3 100.32   -13 Snow
04:00 Legend Double Dagger -5.8 -7.6 87 36 17 12.9 100.39   -12 Snow
05:00 Legend Double Dagger -5.7 -7.7 86 36 19 16.1 100.45   -12 Snow
06:00 Legend Double Dagger -6.1 -8.2 85 35 26 19.3 100.52   -14 Snow
07:00 Legend Double Dagger -6.2 -8.8 82 34 27 24.1 100.60   -14 Snow
08:00 Legend Double Dagger -5.9 -8.8 80 34 24 24.1 100.66   -13 Mostly Cloudy
09:00 Legend Double Dagger -6.2 -9.6 77 34 23 24.1 100.74   -14 LegendNANA
10:00 Legend Double Dagger -6.6 -9.5 80 32 20 24.1 100.81   -14 LegendNANA
11:00 Legend Double Dagger -5.9 -9.0 79 32 19 24.1 100.88   -13 Mostly Cloudy
12:00 Legend Double Dagger -5.8 -9.7 74 34 21 24.1 100.91   -13 LegendNANA
13:00 Legend Double Dagger -5.3 -9.8 71 33 21 24.1 100.96   -12 LegendNANA
14:00 Legend Double Dagger -6.1 -10.2 73 33 21 24.1 101.01   -13 Mainly Clear
15:00 Legend Double Dagger -6.0 -10.1 73 32 22 24.1 101.04   -13 LegendNANA
16:00 Legend Double Dagger -6.9 -10.0 79 33 21 24.1 101.11   -14 LegendNANA
17:00 Legend Double Dagger -6.7 -9.8 79 33 18 24.1 101.14   -13 Mostly Cloudy
18:00 Legend Double Dagger -6.9 -10.5 76 31 16 24.1 101.18   -13 LegendNANA
19:00 Legend Double Dagger -7.5 -10.9 77 30 10 24.1 101.22   -12 Snow
20:00 Legend Double Dagger -7.3 -10.7 77 34 8 24.1 101.23   -11 Snow
21:00 Legend Double Dagger -7.3 -10.7 77 25 9 24.1 101.24   -12 Snow
22:00 Legend Double Dagger -7.3 -10.5 78 25 12 24.1 101.25   -13 Snow
23:00 Legend Double Dagger -7.5 -11.0 76 26 13 24.1 101.23   -13 Snow

Notes on Data Quality.

Legend

  • E = Estimated
  • M = Missing
  • NA = Not Available
  • ‡ = Partner data that is not subject to review by the National Climate Archives
Date modified: